Auburn, Auburn Municipal Airport, United States
Lat: 38.95N, Lon: 121.07W
Local Info
Past Weather Observations for Thursday, January 22, 2015

NOTE: This archive is for the closest National Weather Service station to Auburn, Auburn Municipal Airport. Information may differ from the station used for current weather conditions.

Click here for Long-term Archive

Time Weather Temperature Dewpoint Humidity Pressure Winds Precip Visibility
23:55
Clear
46°F / 8°C 36°F / 2°C 66% 30.33 in
(1027 mb)
E 3.5 mph
(E 6 kph)
- 10SM
23:35
Clear
45°F / 7°C 36°F / 2°C 71% 30.33 in
(1027 mb)
ESE 3.5 mph
(ESE 6 kph)
- 10SM
23:15
Clear
52°F / 11°C 36°F / 2°C 54% 30.33 in
(1027 mb)
E 4.6 mph
(E 7 kph)
- 10SM
22:55
Clear
45°F / 7°C 37°F / 3°C 76% 30.33 in
(1027 mb)
E 3.5 mph
(E 6 kph)
- 10SM
22:35
Clear
39°F / 4°C 37°F / 3°C 93% 30.33 in
(1027 mb)
Calm - 10SM
22:15
Clear
41°F / 5°C 37°F / 3°C 87% 30.33 in
(1027 mb)
Calm - 10SM
21:55
Clear
45°F / 7°C 39°F / 4°C 81% 30.33 in
(1027 mb)
Calm - 10SM
21:35
Clear
43°F / 6°C 39°F / 4°C 87% 30.33 in
(1027 mb)
Calm - 10SM
21:15
Clear
43°F / 6°C 41°F / 5°C 93% 30.3 in
(1026 mb)
Calm - 10SM
20:55
Clear
39°F / 4°C 39°F / 4°C 100% 30.3 in
(1026 mb)
Calm - 10SM
20:35
Clear
43°F / 6°C 41°F / 5°C 93% 30.3 in
(1026 mb)
Calm - 10SM
20:15
Clear
39°F / 4°C 39°F / 4°C 100% 30.3 in
(1026 mb)
Calm - 7SM
19:55
Clear
43°F / 6°C 43°F / 6°C 100% 30.3 in
(1026 mb)
Calm - 9SM
19:35
Clear
43°F / 6°C 43°F / 6°C 100% 30.3 in
(1026 mb)
N 4.6 mph
(N 7 kph)
- 5SM
19:15
Clear
46°F / 8°C 45°F / 7°C 93% 30.3 in
(1026 mb)
Calm - 9SM
18:55
Clear
43°F / 6°C 43°F / 6°C 100% 30.3 in
(1026 mb)
Calm - 10SM
18:35
Clear
43°F / 6°C 43°F / 6°C 100% 30.3 in
(1026 mb)
Calm - 9SM
18:15
Clear
45°F / 7°C 43°F / 6°C 93% 30.3 in
(1026 mb)
Calm - 7SM
17:55
Clear
46°F / 8°C 45°F / 7°C 93% 30.3 in
(1026 mb)
Calm - 10SM
17:35
Clear
45°F / 7°C 43°F / 6°C 93% 30.3 in
(1026 mb)
Calm - 10SM
17:15
Clear
50°F / 10°C 45°F / 7°C 82% 30.3 in
(1026 mb)
Calm - 10SM
16:55
Clear
55°F / 13°C 46°F / 8°C 72% 30.3 in
(1026 mb)
Calm - 10SM
16:35
Clear
55°F / 13°C 46°F / 8°C 72% 30.3 in
(1026 mb)
Calm - 10SM
16:15
Clear
55°F / 13°C 46°F / 8°C 72% 30.3 in
(1026 mb)
Calm - 10SM
15:55
Clear
54°F / 12°C 46°F / 8°C 77% 30.3 in
(1026 mb)
Calm - 9SM
15:35
Partly Cloudy
52°F / 11°C 46°F / 8°C 82% 30.3 in
(1026 mb)
Calm - 8SM
15:15
Clear
50°F / 10°C 46°F / 8°C 88% 30.3 in
(1026 mb)
NE 3.5 mph
(NE 6 kph)
- 6SM
14:55
Clear
50°F / 10°C 46°F / 8°C 88% 30.3 in
(1026 mb)
Calm - 5SM
14:35
Clear
52°F / 11°C 46°F / 8°C 82% 30.3 in
(1026 mb)
W 6.9 mph
(W 11 kph)
- 6SM
14:15
Clear
54°F / 12°C 46°F / 8°C 77% 30.3 in
(1026 mb)
SSW 4.6 mph
(SSW 7 kph)
- 8SM
13:55
Clear
54°F / 12°C 45°F / 7°C 72% 30.3 in
(1026 mb)
SW 3.5 mph
(SW 6 kph)
- 10SM
13:35
Clear
54°F / 12°C 45°F / 7°C 72% 30.27 in
(1025 mb)
Calm - 10SM
13:15
Clear
52°F / 11°C 45°F / 7°C 77% 30.27 in
(1025 mb)
Calm - 10SM
12:55
Clear
50°F / 10°C 45°F / 7°C 82% 30.27 in
(1025 mb)
Calm - 8SM
12:35
Partly Cloudy
50°F / 10°C 45°F / 7°C 82% 30.3 in
(1026 mb)
SSW 3.5 mph
(SSW 6 kph)
- 8SM
11:15
Clear
48°F / 9°C 43°F / 6°C 82% 30.3 in
(1026 mb)
W 4.6 mph
(W 7 kph)
- 9SM
10:55
Clear
48°F / 9°C 41°F / 5°C 76% 30.3 in
(1026 mb)
W 6.9 mph
(W 11 kph)
- 10SM
10:35
Clear
48°F / 9°C 43°F / 6°C 82% 30.3 in
(1026 mb)
WNW 4.6 mph
(WNW 7 kph)
- 9SM
10:15
Clear
46°F / 8°C 43°F / 6°C 87% 30.3 in
(1026 mb)
Calm - 9SM
09:55
Clear
43°F / 6°C 37°F / 3°C 81% 30.27 in
(1025 mb)
Calm - 10SM
09:35
Mostly Cloudy
39°F / 4°C 39°F / 4°C 100% 30.27 in
(1025 mb)
E 4.6 mph
(E 7 kph)
- 8SM
09:15
Overcast
39°F / 4°C 39°F / 4°C 100% 30.27 in
(1025 mb)
ENE 5.8 mph
(ENE 9 kph)
- M1/4SM
08:55
Overcast
37°F / 3°C 37°F / 3°C 100% 30.27 in
(1025 mb)
N 3.5 mph
(N 6 kph)
- 1/4SM
08:35
Clear
36°F / 2°C 36°F / 2°C 100% 30.27 in
(1025 mb)
WNW 4.6 mph
(WNW 7 kph)
- 5SM
08:15
Clear
36°F / 2°C 36°F / 2°C 100% 30.27 in
(1025 mb)
Calm - 5SM
07:55
Partly Cloudy
36°F / 2°C 36°F / 2°C 100% 30.27 in
(1025 mb)
Calm - 2 1/2SM
07:35
Overcast
36°F / 2°C 36°F / 2°C 100% 30.27 in
(1025 mb)
Calm - 1/2SM
07:15
Overcast
36°F / 2°C 36°F / 2°C 100% 30.24 in
(1024 mb)
Calm - M1/4SM
06:55
Overcast
37°F / 3°C 37°F / 3°C 100% 30.24 in
(1024 mb)
Calm - M1/4SM
06:35
Overcast
37°F / 3°C 37°F / 3°C 100% 30.24 in
(1024 mb)
NNW 3.5 mph
(NNW 6 kph)
- M1/4SM
06:15
Overcast
37°F / 3°C 37°F / 3°C 100% 30.24 in
(1024 mb)
NNW 3.5 mph
(NNW 6 kph)
- M1/4SM
05:55
Overcast
36°F / 2°C 36°F / 2°C 100% 30.24 in
(1024 mb)
NNE 3.5 mph
(NNE 6 kph)
- M1/4SM
05:35
Mostly Cloudy
36°F / 2°C 36°F / 2°C 100% 30.24 in
(1024 mb)
Calm - 2SM
05:15
Overcast
36°F / 2°C 36°F / 2°C 100% 30.24 in
(1024 mb)
NNW 3.5 mph
(NNW 6 kph)
- M1/4SM
04:55
Overcast
36°F / 2°C 36°F / 2°C 100% 30.24 in
(1024 mb)
NW 3.5 mph
(NW 6 kph)
- M1/4SM
04:35
Overcast
36°F / 2°C 36°F / 2°C 100% 30.24 in
(1024 mb)
Calm - M1/4SM
04:15
Overcast
37°F / 3°C 37°F / 3°C 100% 30.24 in
(1024 mb)
Calm - 1/2SM
03:55
Overcast
39°F / 4°C 39°F / 4°C 100% 30.24 in
(1024 mb)
Calm - 3/4SM
03:35
Clear
39°F / 4°C 39°F / 4°C 100% 30.24 in
(1024 mb)
Calm - 2 1/2SM
03:15
Partly Cloudy
37°F / 3°C 37°F / 3°C 100% 30.24 in
(1024 mb)
Calm - 1 3/4SM
02:55
Mostly Cloudy
36°F / 2°C 36°F / 2°C 100% 30.24 in
(1024 mb)
Calm - M1/4SM
02:35
Obscured
37°F / 3°C 37°F / 3°C 100% 30.24 in
(1024 mb)
Calm - 1/2SM
02:15
Clear
37°F / 3°C 37°F / 3°C 100% 30.24 in
(1024 mb)
Calm - 2SM
01:55
Clear
37°F / 3°C 37°F / 3°C 100% 30.21 in
(1023 mb)
Calm - 2SM
01:35
Clear
39°F / 4°C 39°F / 4°C 100% 30.21 in
(1023 mb)
Calm - 3SM
01:15
Clear
43°F / 6°C 43°F / 6°C 100% 30.21 in
(1023 mb)
Calm - 4SM
00:55
Clear
43°F / 6°C 43°F / 6°C 100% 30.21 in
(1023 mb)
E 4.6 mph
(E 7 kph)
- 2 1/2SM
00:35
Clear
43°F / 6°C 43°F / 6°C 100% 30.21 in
(1023 mb)
E 3.5 mph
(E 6 kph)
- 2 1/2SM
00:15
Clear
41°F / 5°C 41°F / 5°C 100% 30.21 in
(1023 mb)
E 3.5 mph
(E 6 kph)
- 2 1/2SM
Time Weather Temperature Dewpoint Humidity Pressure Winds Precip Visibility


Weather for websites

WeatherForYou.com, LLC is not responsible for any damages or problems caused by this service. Current weather conditions are obtained from the closest station including government and personal stations which may have varying degrees of accuracy. Weather forecasts are derived from the NOAA NDFD. Like all things, this site belongs to Jesus Christ... He just trusts me to maintain it. If you have any questions or comments email webmaster@weatherforyou.com

Copyright © 2015, WeatherForYou.com LLC. All rights reserved.